Date String (YYYY-MM-DD hh:mm:ss) UTC,Instrument flags,absolute air pressure of the measurement (hPa),sample flow rate (lpm),inlet stack bypass flow (lpm),air temperature of the measurement (°C),ambient temperature measured by the external sensor (°C),aerosol sample conditioner tube jacket temperature (°C),OPC LED temperature (°C),internal box temperature (°C),relative humidity of the measurement (%),span deviation,mass concentration of particles derived from Lorenz-Mie calculation of OPC scattering (μg/m³),mass concentration of particles derived from Lorenz-Mie calculation of OPC scattering (μg/m³),mass concentration of particles derived from Lorenz-Mie calculation of OPC scattering (μg/m³)
DateTimeUTC,F1_M11,P_M11,Q1_M11,Q2_M11,T1_M11,T2_M11,T3_M11,T4_M11,T5_M11,U1_M11,ZSPAN_M11,X0_M11,X2_M11,X1_M11
2023-10-22 04:00:00,SystemResetWarning,0827.6,5.00,000.00,028.5,027.3,000.0,036.9,030.3,11.7,0000.0,0018.21,0004.19,0002.54
2023-10-22 04:01:00,SystemResetWarning,0827.6,4.99,000.00,028.6,027.4,000.0,037.0,030.3,11.8,0000.0,0018.32,0004.15,0002.53
2023-10-22 04:02:00,SystemResetWarning,0827.5,4.99,000.00,028.6,027.4,000.0,037.0,030.4,11.6,0000.0,0017.63,0004.18,0002.52
2023-10-22 04:03:00,SystemResetWarning,0827.5,5.00,000.00,028.6,027.5,000.0,037.0,030.4,11.6,0000.0,0018.06,0004.23,0002.52
2023-10-22 04:04:00,SystemResetWarning,0827.6,5.00,000.00,028.7,027.5,000.0,037.0,030.4,11.4,0000.0,0017.87,0004.21,0002.49
2023-10-22 04:05:00,SystemResetWarning,0827.6,5.00,000.00,028.7,027.6,000.0,037.0,030.4,11.4,0000.0,0017.48,0004.19,0002.48
2023-10-22 04:06:00,SystemResetWarning,0827.6,5.00,000.00,028.7,027.6,000.0,037.1,030.5,11.3,0000.0,0017.83,0004.17,0002.45
2023-10-22 04:07:00,SystemResetWarning,0827.6,4.99,000.00,028.8,027.3,000.0,037.1,030.5,11.1,0000.0,0016.95,0004.13,0002.44
2023-10-22 04:08:00,SystemResetWarning,0827.6,5.00,000.00,028.7,025.5,000.0,037.0,030.3,11.1,0000.0,0017.18,0004.11,0002.44
2023-10-22 04:09:00,SystemResetWarning,0827.6,5.00,000.00,028.6,024.6,000.0,037.0,030.2,11.1,0000.0,0016.73,0004.11,0002.41
2023-10-22 04:10:00,SystemResetWarning,0827.4,5.01,000.00,028.5,024.6,000.0,036.9,029.9,11.1,0000.0,0016.79,0004.05,0002.37
2023-10-22 04:11:00,SystemResetWarning,0827.4,5.00,000.00,028.4,024.9,000.0,036.9,029.8,11.1,0000.0,0015.51,0004.00,0002.33
2023-10-22 04:12:00,SystemResetWarning,0827.4,5.00,000.00,028.4,025.3,000.0,036.9,029.9,11.2,0000.0,0014.57,0003.92,0002.30
2023-10-22 04:13:00,SystemResetWarning,0827.4,5.00,000.00,028.4,025.7,000.0,036.9,029.9,11.3,0000.0,0016.19,0003.93,0002.29
2023-10-22 04:14:00,SystemResetWarning,0827.3,5.00,000.00,028.4,026.0,000.0,036.9,029.9,11.3,0000.0,0016.38,0003.94,0002.28
2023-10-22 04:15:00,SystemResetWarning,0827.8,5.00,000.00,028.4,026.3,000.0,036.9,030.0,11.5,0000.0,0015.69,0003.96,0002.27
2023-10-22 04:16:00,SystemResetWarning,0827.5,5.00,000.00,028.4,026.5,000.0,036.9,030.0,11.7,0000.0,0015.84,0003.98,0002.24
2023-10-22 04:17:00,SystemResetWarning,0827.5,4.98,000.00,028.4,026.7,000.0,036.9,030.0,11.9,0000.0,0016.01,0003.99,0002.24
2023-10-22 04:18:00,SystemResetWarning,0827.6,5.00,000.00,028.4,026.9,000.0,036.9,030.1,12.0,0000.0,0015.85,0003.95,0002.23
2023-10-22 04:19:00,SystemResetWarning,0827.6,5.01,000.00,028.4,027.0,000.0,036.9,030.1,12.1,0000.0,0016.09,0003.90,0002.20
2023-10-22 04:20:00,SystemResetWarning,0827.7,5.00,000.00,028.5,027.1,000.0,036.9,030.2,11.9,0000.0,0016.43,0003.91,0002.18
2023-10-22 04:21:00,SystemResetWarning,0827.7,5.00,000.00,028.5,027.2,000.0,036.9,030.2,11.8,0000.0,0016.22,0003.94,0002.18
2023-10-22 04:22:00,SystemResetWarning,0827.7,5.00,000.00,028.5,027.3,000.0,036.9,030.3,11.9,0000.0,0015.51,0004.00,0002.18
2023-10-22 04:23:00,SystemResetWarning,0827.7,4.98,000.00,028.6,027.3,000.0,037.0,030.3,11.8,0000.0,0015.99,0004.03,0002.18
2023-10-22 04:24:00,SystemResetWarning,0827.6,5.00,000.00,028.6,027.4,000.0,037.0,030.3,11.7,0000.0,0014.99,0004.01,0002.16
2023-10-22 04:25:00,SystemResetWarning,0827.6,5.01,000.00,028.6,027.4,000.0,037.0,030.3,11.6,0000.0,0014.39,0003.96,0002.14
2023-10-22 04:26:00,SystemResetWarning,0827.6,5.01,000.00,028.6,027.5,000.0,037.0,030.4,11.6,0000.0,0014.99,0003.90,0002.14
2023-10-22 04:27:00,SystemResetWarning,0827.7,5.00,000.00,028.7,027.5,000.0,037.0,030.4,11.6,0000.0,0015.27,0003.86,0002.14
2023-10-22 04:28:00,SystemResetWarning,0827.7,5.00,000.00,028.7,027.5,000.0,037.0,030.4,11.5,0000.0,0015.07,0003.82,0002.14
2023-10-22 04:29:00,SystemResetWarning,0827.7,4.98,000.00,028.7,027.6,000.0,037.1,030.4,11.4,0000.0,0015.54,0003.88,0002.13
2023-10-22 04:30:00,SystemResetWarning,0827.7,5.01,000.00,028.7,027.6,000.0,037.1,030.5,11.4,0000.0,0015.39,0003.94,0002.13
2023-10-22 04:31:00,SystemResetWarning,0827.7,5.02,000.00,028.8,027.6,000.0,037.1,030.5,11.5,0000.0,0015.27,0003.91,0002.14
2023-10-22 04:32:00,SystemResetWarning,0827.7,5.00,000.00,028.8,027.4,000.0,037.1,030.5,11.6,0000.0,0015.98,0003.88,0002.13
2023-10-22 04:33:00,SystemResetWarning,0827.7,4.98,000.00,028.8,025.6,000.0,037.1,030.4,11.8,0000.0,0017.19,0003.78,0002.13
2023-10-22 04:34:00,SystemResetWarning,0827.8,5.02,000.00,028.7,024.5,000.0,037.0,030.2,11.9,0000.0,0017.52,0003.78,0002.13
2023-10-22 04:35:00,SystemResetWarning,0827.8,5.00,000.00,028.6,024.6,000.0,037.0,029.9,12.2,0000.0,0017.55,0003.82,0002.15
2023-10-22 04:36:00,SystemResetWarning,0827.8,4.99,000.00,028.5,024.8,000.0,037.0,029.8,12.6,0000.0,0017.08,0003.84,0002.17
2023-10-22 04:37:00,SystemResetWarning,0828.0,5.00,000.00,028.4,025.2,000.0,037.0,029.9,12.9,0000.0,0016.83,0003.88,0002.18
2023-10-22 04:38:00,SystemResetWarning,0828.1,5.01,000.00,028.4,025.6,000.0,037.0,029.9,13.0,0000.0,0016.52,0003.94,0002.18
2023-10-22 04:39:00,SystemResetWarning,0828.1,5.01,000.00,028.4,025.9,000.0,036.9,029.9,13.4,0000.0,0016.13,0003.93,0002.17
2023-10-22 04:40:00,SystemResetWarning,0828.2,5.00,000.00,028.4,026.2,000.0,036.9,030.0,13.5,0000.0,0016.91,0003.98,0002.19
2023-10-22 04:41:00,SystemResetWarning,0828.2,4.99,000.00,028.4,026.5,000.0,036.9,030.0,13.6,0000.0,0016.77,0003.98,0002.20
2023-10-22 04:42:00,SystemResetWarning,0828.3,5.00,000.00,028.4,026.7,000.0,036.9,030.1,13.8,0000.0,0016.87,0003.99,0002.20
2023-10-22 04:43:00,SystemResetWarning,0828.3,5.00,000.00,028.4,026.8,000.0,036.9,030.1,13.0,0000.0,0015.91,0003.99,0002.20
2023-10-22 04:44:00,SystemResetWarning,0828.4,5.00,000.00,028.5,027.0,000.0,036.9,030.2,12.6,0000.0,0015.67,0004.07,0002.22
2023-10-22 04:45:00,SystemResetWarning,0828.4,5.00,000.00,028.5,027.1,000.0,036.9,030.2,12.6,0000.0,0016.34,0004.10,0002.24
2023-10-22 04:46:00,SystemResetWarning,0828.4,5.00,000.00,028.5,027.2,000.0,036.9,030.2,12.8,0000.0,0016.51,0004.09,0002.24
2023-10-22 04:47:00,SystemResetWarning,0828.4,5.01,000.00,028.5,027.2,000.0,037.0,030.2,12.8,0000.0,0016.34,0004.03,0002.22
2023-10-22 04:48:00,SystemResetWarning,0828.4,5.01,000.00,028.6,027.3,000.0,037.0,030.3,13.2,0000.0,0016.46,0004.03,0002.22
2023-10-22 04:49:00,SystemResetWarning,0828.4,5.00,000.00,028.6,027.4,000.0,037.0,030.3,13.3,0000.0,0016.33,0003.99,0002.21
2023-10-22 04:50:00,SystemResetWarning,0828.4,4.99,000.00,028.6,027.5,000.0,037.0,030.3,14.0,0000.0,0017.24,0004.02,0002.20
2023-10-22 04:51:00,SystemResetWarning,0828.4,5.00,000.00,028.7,027.5,000.0,037.0,030.4,13.9,0000.0,0016.17,0003.98,0002.20
2023-10-22 04:52:00,SystemResetWarning,0828.4,4.99,000.00,028.7,027.5,000.0,037.0,030.4,13.7,0000.0,0016.20,0003.93,0002.19
2023-10-22 04:53:00,SystemResetWarning,0828.3,5.00,000.00,028.7,027.6,000.0,037.0,030.4,14.0,0000.0,0015.94,0003.90,0002.19
2023-10-22 04:54:00,SystemResetWarning,0828.3,5.00,000.00,028.7,027.6,000.0,037.1,030.4,14.3,0000.0,0015.99,0003.91,0002.19
2023-10-22 04:55:00,SystemResetWarning,0828.3,5.01,000.00,028.8,027.6,000.0,037.1,030.5,14.4,0000.0,0016.43,0003.93,0002.18
2023-10-22 04:56:00,SystemResetWarning,0828.4,4.99,000.00,028.8,026.5,000.0,037.0,030.4,14.4,0000.0,0015.15,0003.90,0002.16
2023-10-22 04:57:00,SystemResetWarning,0828.3,5.00,000.00,028.7,024.7,000.0,037.0,030.2,14.4,0000.0,0015.56,0003.93,0002.14
2023-10-22 04:58:00,SystemResetWarning,0828.3,5.00,000.00,028.6,024.4,000.0,036.9,030.1,14.5,0000.0,0015.93,0004.01,0002.16
2023-10-22 04:59:00,SystemResetWarning,0828.3,5.01,000.00,028.5,024.6,000.0,036.9,029.8,14.7,0000.0,0016.10,0004.03,0002.18
